[[{"header":{"parameterUnit":"m.s-1","parameterCategory":1,"la1":30.2992,"la2":30.254,"lo1":-89.0895,"lo2":-89.0443,"dy":0.0025,"dx":0.0025,"nx":19,"ny":19,"refTime":"2026-04-10T09:00:00:Z","depth":0,"parameterNumber":2,"parameterNumberName":"U-component_of_WINDS"},"data":[0,0,0,-5.3153,-5.3155,-5.3207,-5.3207,-5.3295,-5.3296,0,0,0,0,0,0,0,0,0,0,0,-5.3151,-5.3152,-5.3153,-5.3155,-5.3207,-5.3207,-5.3295,-5.3296,0,0,0,0,0,0,0,0,0,0,0,-5.315,-5.3151,-5.3153,-5.3155,-5.3207,-5.3207,-5.3294,-5.3247,0,0,0,0,0,0,0,0,0,0,-5.3193,-5.3203,-5.3151,-5.3153,-5.3156,-5.3207,-5.3207,-5.3245,-5.325,-5.328,0,-5.331,0,-5.3305,-5.3303,-5.3303,0,0,0,-5.3145,-5.3198,-5.3201,-5.3153,-5.3156,-5.3207,-5.3181,-5.3248,-5.3254,-5.3287,-5.3311,-5.3314,-5.3306,-5.3304,-5.3304,-5.3509,-5.351,0,0,-5.3142,-5.3167,-5.3197,-5.3206,-5.32,-5.3179,-5.3183,-5.3251,-5.3278,-5.3311,-5.3315,-5.3307,-5.3304,-5.3305,-5.3507,-5.3509,0,0,0,-5.3141,-5.3165,-5.3166,-5.3203,-5.3211,-5.3181,-5.3185,-5.3275,-5.3273,-5.3316,-5.3308,-5.3305,-5.3306,-5.3506,-5.3508,-5.3601,0,0,0,-5.3138,-5.3164,-5.3165,-5.318,-5.321,-5.3244,-5.3208,-5.3269,-5.3276,-5.3308,-5.3305,-5.3307,-5.3504,-5.3507,-5.3595,-5.364,0,0,0,-5.3143,-5.3164,-5.3176,-5.3182,-5.3205,-5.3242,-5.3244,-5.3269,-5.3272,-5.3303,-5.3308,-5.3503,-5.3506,-5.3589,-5.3631,-5.37,0,0,0,-5.3154,-5.3258,-5.3178,-5.3291,-5.3205,-5.33,-5.3243,-5.3313,-5.3351,-5.3305,-5.3504,-5.3508,-5.3588,-5.3625,-5.3694,-5.3761,-5.3791,0,0,-5.3298,-5.3276,-5.334,-5.3271,-5.3386,-5.329,-5.3419,-5.3431,-5.3412,-5.3477,-5.3482,-5.3597,-5.363,-5.3699,-5.3958,-5.3982,0,0,0,-5.3394,-5.344,-5.3466,-5.3504,-5.3517,-5.3531,-5.3521,-5.3526,-5.3581,-5.3451,-5.3641,-5.366,-5.3699,-5.3729,-5.375,-5.3782,-5.3524,-5.3523,-5.3523,-5.363,-5.3601,-5.3706,-5.3684,-5.3722,-5.3712,-5.374,-5.3745,-5.3703,-5.3749,-5.3767,-5.3928,-5.3965,-5.3981,-5.4014,-5.3802,-5.3803,-5.3803,-5.3803,-5.3836,-5.3897,-5.3842,-5.3924,-5.3893,-5.3961,-5.3956,-5.3925,-5.3984,-5.3912,-5.3945,-5.3867,-5.4008,-5.4036,-5.381,-5.3809,-5.3808,-5.3807,-5.3807,-5.3986,-5.401,-5.4015,-5.4069,-5.4114,-5.4088,-5.4148,-5.4118,-5.409,-5.4123,-5.4138,-5.4136,-5.413,-5.4133,-5.4133,-5.4134,-5.4134,-5.4135,-5.4135,-5.4137,-5.4141,-5.4194,-5.4219,-5.424,-5.4265,-5.4258,-5.4278,-5.4292,-5.4265,-5.4265,-5.4219,-5.4029,-5.398,-5.4144,-5.4142,-5.4141,-5.414,-5.414,-5.4353,-5.43,-5.4383,-5.4405,-5.4431,-5.4478,-5.4441,-5.4485,-5.4497,-5.4527,-5.4476,-5.434,-5.4314,-5.4298,-5.4257,-5.4482,-5.4482,-5.4482,-5.4482,-5.4477,-5.4463,-5.4541,-5.4578,-5.4611,-5.4586,-5.4681,-5.4678,-5.4666,-5.4672,-5.4635,-5.458,-5.4565,-5.4548,-5.4526,-5.4487,-5.4766,-5.4766,-5.4767,-5.4608,-5.4595,-5.4681,-5.467,-5.4689,-5.4706,-5.4794,-5.4839,-5.4814,-5.4777,-5.4675,-5.4663,-5.4574,-5.4546,-5.4504,-5.447,-5.4399,0,0]},{"header":{"parameterUnit":"m.s-1","parameterCategory":1,"la1":30.2992,"la2":30.254,"lo1":-89.0895,"lo2":-89.0443,"dy":0.0025,"dx":0.0025,"nx":19,"ny":19,"refTime":"2026-04-10T09:00:00:Z","depth":0,"parameterNumber":3,"parameterNumberName":"V-component_of_WINDS"},"data":[0,0,0,2.4493,2.4494,2.4551,2.4552,2.4597,2.4597,0,0,0,0,0,0,0,0,0,0,0,2.4461,2.446,2.4493,2.4494,2.4551,2.4552,2.4597,2.4597,0,0,0,0,0,0,0,0,0,0,0,2.4461,2.4461,2.446,2.4494,2.4551,2.4552,2.4597,2.4563,0,0,0,0,0,0,0,0,0,0,2.4512,2.4467,2.4461,2.446,2.4495,2.4551,2.4552,2.4562,2.4565,2.456,0,2.4551,0,2.4575,2.4598,2.4598,0,0,0,2.4505,2.4464,2.4494,2.446,2.4495,2.4551,2.4529,2.4564,2.4568,2.4564,2.4552,2.4555,2.4576,2.4598,2.4599,2.4531,2.453,0,0,2.4502,2.4462,2.4492,2.4496,2.4487,2.4527,2.453,2.4567,2.4551,2.4552,2.4556,2.4576,2.4599,2.4599,2.4532,2.4531,0,0,0,2.4486,2.4459,2.4489,2.4493,2.4506,2.4528,2.4532,2.4549,2.4563,2.4557,2.4577,2.4599,2.4599,2.4533,2.4532,2.4452,0,0,0,2.4484,2.445,2.4487,2.4463,2.4505,2.4528,2.4513,2.456,2.4565,2.4577,2.4599,2.4599,2.4534,2.4532,2.4456,2.442,0,0,0,2.4462,2.4447,2.445,2.446,2.4484,2.4529,2.4545,2.4562,2.4577,2.4598,2.4599,2.4535,2.4533,2.446,2.4426,2.439,0,0,0,2.4426,2.4377,2.4448,2.4401,2.4483,2.4479,2.4545,2.4544,2.4553,2.4599,2.4534,2.4532,2.4461,2.443,2.4394,2.4352,2.4332,0,0,2.4341,2.4365,2.434,2.4406,2.438,2.4474,2.4436,2.4481,2.4519,2.4525,2.4524,2.4454,2.4426,2.4391,2.423,2.4213,0,0,0,2.43,2.4281,2.4283,2.4291,2.4326,2.4352,2.4409,2.4426,2.4433,2.4514,2.4434,2.4418,2.4399,2.4381,2.4367,2.4353,2.4522,2.4522,2.4523,2.4119,2.4173,2.4136,2.4196,2.4203,2.4263,2.4272,2.4306,2.4356,2.4336,2.4337,2.4234,2.4211,2.42,2.4185,2.4321,2.432,2.432,2.432,2.3998,2.3981,2.4052,2.4041,2.4098,2.4089,2.4145,2.4181,2.4181,2.4236,2.4222,2.4277,2.418,2.417,2.4314,2.4315,2.4316,2.4317,2.4317,2.3885,2.3887,2.391,2.3928,2.3936,2.3999,2.3996,2.4047,2.4096,2.4082,2.4089,2.409,2.4098,2.4082,2.4082,2.4081,2.4081,2.4081,2.408,2.3759,2.3788,2.378,2.3815,2.3827,2.385,2.3911,2.3924,2.3952,2.399,2.399,2.4042,2.4162,2.419,2.4075,2.4076,2.4077,2.4077,2.4078,2.3615,2.3656,2.3643,2.3656,2.3702,2.3706,2.3773,2.3796,2.3815,2.3812,2.3868,2.3948,2.3976,2.3987,2.4011,2.3857,2.3857,2.3857,2.3857,2.3519,2.3539,2.3539,2.3556,2.3579,2.3638,2.3622,2.3669,2.3723,2.3738,2.3768,2.3805,2.3815,2.3836,2.3851,2.3874,2.3689,2.3689,2.3688,2.3433,2.3458,2.3434,2.3491,2.3531,2.3564,2.355,2.3566,2.3636,2.3683,2.3751,2.3758,2.3817,2.3834,2.388,2.3902,2.3945,0,0]}]]